Regional Weather Roundup
Issued by NWS

Home | Current Version | Previous Version | Text Only | Print | Product List | Glossary On
Versions: 1 2 3 4 5 6 7 8 9 10 11 12 13 14 15 16 17 18 19 20 21 22 23 24 25 26 27 28 29 30 31 32 33 34 35 36 37 38 39 40 41 42 43 44 45 46 47 48 49 50
000
ASUS44 KFWD 211603
RWRTX
NORTH TEXAS HOURLY WEATHER ROUNDUP
NATIONAL WEATHER SERVICE FORT WORTH TX
1000 AM CST TUE NOV 21 2017

NOTE: "FAIR" INDICATES FEW OR NO CLOUDS BELOW 12,000 FEET WITH NO
SIGNIFICANT WEATHER AND/OR OBSTRUCTIONS TO VISIBILITY.

TXZ118-119-211700-
DALLAS/FORT WORTH METROPLEX

CITY           SKY/WX    TMP DP  RH WIND       PRES   REMARKS
DFW AIRPORT    MOSUNNY   59  51  75 S9        29.88R
DALLAS LOVE    MOSUNNY   58  51  78 S9        29.89S
FTW MEACHAM    MOSUNNY   58  51  78 SE7       29.87R
DAL-EXECUTIVE  MOSUNNY   57  52  83 S10       29.88R
FTW-ALLIANCE   MOSUNNY   58  50  75 S6        29.88R
FTW-NAS-JRB    PTSUNNY   58  48  69 S10       29.88R
FTW-SPINKS     SUNNY     57  52  82 SE8       29.88F
ARLINGTON      MOSUNNY   57  52  83 SE9       29.88S
GRAND PRAIRIE  SUNNY     57  48  72 S12       29.90S
ADDISON        MOSUNNY   57  50  77 SE10      29.90R
MESQUITE       PTSUNNY   55  52  88 SE9       29.91S
LANCASTER      MOSUNNY   56  51  85 S10       29.91R
$$

TXZ091>094-102>105-117-120-121-131>134-211700-
NORTH CENTRAL TEXAS

CITY           SKY/WX    TMP DP  RH WIND       PRES   REMARKS
SHRMAN/DENISON MOSUNNY   58  50  73 S9        29.94R
GAINESVILLE    SUNNY     57  47  69 S6        29.93R
BOWIE          SUNNY     55  39  54 CALM      29.90R
BRIDGEPORT     MOSUNNY   55  41  60 CALM      29.91R
DECATUR        SUNNY     57  43  59 S6        29.89
DENTON         SUNNY     59  50  72 S12       29.90R
MCKINNEY       PTSUNNY   56  52  86 S9        29.92R
BONHAM         CLOUDY   N/A N/A N/A S10       29.94R
ROCKWALL       MOSUNNY   58  53  82 S15G21    29.90S
TERRELL        MOSUNNY   60  53  77 S15       29.91S
WAXAHACHIE     MOSUNNY   55  53  94 S10       29.90S
CLEBURNE       CLOUDY    54  54 100 S7G15     29.88S
GRANBURY       PTSUNNY   56  48  74 E3        29.88R
$$

TXZ083>090-098>101-113>116-127>130-139>142-154-155-211700-
WESTERN NORTH TEXAS

CITY           SKY/WX    TMP DP  RH WIND       PRES   REMARKS
WICHITA FALLS  MOSUNNY   54  37  52 NE6       29.90R
WF-KICKAPOO    SUNNY     54  37  52 NW3       29.91R
VERNON         SUNNY     51  33  48 N9        29.93R
ABILENE        CLOUDY    56  31  38 NW15      29.86R
ABILENE-DYESS  CLOUDY    57  32  39 NW17      29.87R
GRAHAM           N/A     58  39  49 CALM      29.86R
BRECKENRIDGE   CLOUDY    61  37  41 W8        29.86R
CISCO          CLOUDY    57  39  51 SW12G17   29.83F
EASTLAND       CLOUDY    57  41  56 SW8       29.84F
RANGER         CLOUDY    56  43  61 SW10G17   29.84F
MINERAL WELLS  MOSUNNY   55  42  61 VRB5      29.86R
STEPHENVILLE   MOSUNNY   53  46  77 S6        29.87F
COMANCHE       MOSUNNY   57  47  69 W9G17     29.85S
BROWNWOOD      CLOUDY    55  46  71 SW5       29.87R
COLEMAN        MOSUNNY   59  43  55 W14       29.87R
$$

TXZ143>147-156>162-174-175-211700-
CENTRAL TEXAS

CITY           SKY/WX    TMP DP  RH WIND       PRES   REMARKS
WACO           CLOUDY    61  53  75 S16       29.88F
WACO-TSTC      SUNNY     59  54  82 S9        29.89F
WACO-MCGREGOR  MOSUNNY   59  53  80 S13       29.88F
HILLSBORO      PTSUNNY   60  54  81 S13       29.88S
CORSICANA      CLOUDY    57  54  89 S12       29.92F
MEXIA          PTSUNNY   58  54  88 SE13      29.89F
HEARNE         PTSUNNY   59  56  90 SE6       29.92F
CAMERON        CLOUDY    62  57  83 S6        29.90F
TEMPLE         CLOUDY    58  53  84 S15       29.89S
KILLEEN        MOSUNNY   57  52  85 S13       29.85F
KILLEEN-SKYLRK PTSUNNY   58  53  84 S10       29.88S
GATESVILLE     CLOUDY    57  52  82 S9        29.88F
HAMILTON       MOSUNNY   57  50  77 SW7       29.87R
LAMPASAS       MOSUNNY   58  54  86 S6        29.86F
$$

TXZ095>097-106>112-122>126-135>138-148>153-164>167-211700-
EAST TEXAS

CITY           SKY/WX    TMP DP  RH WIND       PRES   REMARKS
PARIS          PTSUNNY   53  48  83 SE9       29.95S
SULPHUR SPRNGS CLOUDY    57  52  82 SE7       29.96S
MOUNT PLEASANT PTSUNNY   53  47  81 E3        29.97S
GILMER         MOSUNNY   54  47  77 S6        29.96S
MINEOLA        MOSUNNY   55  50  82 SE6       29.94S
TYLER          CLOUDY    55  50  83 S8        29.94S
LONGVIEW       CLOUDY    57  49  74 SE10      29.95F
MARSHALL       MOSUNNY   54  41  60 S8        30.00R
ATHENS         CLOUDY    55  50  82 SE7       29.91F
PALESTINE      CLOUDY    59  55  85 SE6       29.94F
JACKSONVILLE   CLOUDY    56  52  85 S12       29.96F
HENDERSON      PTSUNNY   57  49  74 S8        29.96F
CENTER         CLOUDY    54  41  62 CALM      30.00R
NACOGDOCHES    PTSUNNY   56  49  77 SE7       29.98R
LUFKIN         CLOUDY    56  50  80 SE8       29.97R
$$

SUPPLEMENTAL OBSERVATIONS (NWS FORT WORTH AREA)

CITY           SKY/WX    TMP DP  RH WIND       PRES   REMARKS
$$

SUPPLEMENTAL OBSERVATIONS (NWS NORMAN AREA)

CITY           SKY/WX    TMP DP  RH WIND       PRES   REMARKS
GOODLETT         N/A     53  29  40 N16       29.94R
ODELL            N/A     53  37  56 N12       29.94R
CROWELL          N/A     50  35  55 N16       29.93R
KNOX CITY        N/A     51  32  48 N13       29.90R
SEYMOUR          N/A     53  37  54 N10       29.90R
$$

SUPPLEMENTAL OBSERVATIONS (NWS SAN ANGELO AREA)

CITY           SKY/WX    TMP DP  RH WIND       PRES   REMARKS
WEINERT          N/A     50  33  51 N9        29.90R
HASKELL          N/A     51  32  48 N15       29.88R
THROCKMORTON     N/A     56  38  52 NW7       29.88R
STAMFORD         N/A     51  33  48 N13       29.89R
CLYDE            N/A     57  34  41 W16       29.86R
$$

SUPPLEMENTAL OBSERVATIONS (NWS SHREVEPORT AREA)

CITY           SKY/WX    TMP DP  RH WIND       PRES   REMARKS
$$

SUPPLEMENTAL OBSERVATIONS ARE A COLLECTION OF AUTOMATED INSTRUMENTS
THAT ARE MAINTAINED BY A VARIETY OF FEDERAL AND STATE AGENCIES.
CERTAIN ELEMENTS...SUCH AS HUMIDITY VALUES AND SUSTAINED WIND
SPEEDS...MAY BE APPROXIMATED.




USA.gov is the U.S. government's official web portal to all federal, state and local government web resources and services.